ONEWEB-0027, 45432

Orbit data source: Space-Track

ONEWEB-0027, 45432 is a payload satellite owned by One Web (UK) in LEO that was launched on Sat, 21 Mar 2020 UTC via a SOYUZ-2-1B launch vehicle from the Tyuratam Missile And Space Complex (TTMTR). Payload-class satellites include a variety of spacecraft equipped with specific instruments for various scientific and technological missions. These include communications satellites like Starlink; space stations such as the ISS; scientific satellites like the Hubble; Earth observation satellites from companies like Planet Labs, Umbra, and HawkEye 360; GPS; miniature CubeSats for education and research; and military/defense satellites.

Loading next visibility...
Identifier
45432, 2020-020J
Orbit
LEO
Country
Flag of UKUK
Related business
Manufacturer
One Web
Mission
Operational Commercial Communications
Bus & Motor
ARROW, Unknown motor
Mass
148 kg wet, ~140 kg dry
Launch date (UTC)
2020-03-21 (6 years ago)
Launch vehicle
SOYUZ-2-1B
Launch site
Tyuratam Missile And Space Complex (TTMTR)
Object type
Payload
Rocket body
Debris
Shape & HBR
Trap Box + 2 Pan, 6.7 m
Radar Cross Section
3.464 m², Large (>1 m²)

Expand to show TLE details & history
Last TLE update: 16 hours ago

TLE from 16 hours ago
0 ONEWEB-0027
1 45432U 20020J   25339.74456347 -.00000008  00000-0 -54822-4 0  9999
2 45432  87.9123  44.3047 0001411  91.4342 268.6951 13.17650542280889
Epoch: 2025-12-05T17:52Z
TLE epoch observation values (Epoch: 2025-12-05T17:52:10.283Z)
Latitude
-0.00006°
Longitude
61.4796°
Altitude
1,196.63 km
Speed
7.256 km/s
True Right ascension
02h 57m 13s
True Declination
0° 00' 00"
Sunlit
Object was in full shadow at epoch
Visualization orbit readout
Latitude
Unknown
Longitude
Unknown
Altitude
Unknown
Speed
Unknown
Apparent Right ascension
Unknown
Apparent Declination
Unknown
Sunlit
N/A
Visualization observer readout
Local Sidereal Time
07:26:12
Azimuth
Unknown
Elevation
Unknown
Doppler factor
Unknown
Orbital elements
Apogee altitude
1,191.884 km
Perigee altitude
1,189.748 km
Semi-major axis
7,568.953 km
Eccentricity
0.00014
Inclination
87.9123°
RAAN
44.3047°
Arg. of periapsis
91.4342°
True anomaly
268.67894°
Mean anomaly
268.6951°
Eccentric anomaly
268.68702°
Mean motion
3.29602 °/min
Orbital period
109.22 mins
BSTAR
-0.000054822
Loading maneuver chart data...
Computing Atmospheric mass density...
Loading historical data...
Loading historical data...
Loading historical data...
Loading historical data...
Loading historical data...
Loading historical data...
Loading historical data...

Documentation

Showing up to 5 results
|